Location: Doughton Park
(36.4224°N, 81.1835°W)
Time: 11:42:05
(UTC-04:00)

ISS - All Passes

Search period start: 26 April 2015 00:00
Search period end: 06 May 2015 00:00
Orbit: 395 x 402 km, 51.6° (Epoch: 26 April)

Date Brightness Start Highest point End Pass type
(mag) Time Alt. Az. Time Alt. Az. Time Alt. Az.
26 Apr - 10:55:09 10° SSE 10:56:12 11° SE 10:57:23 10° ESE daylight
26 Apr - 12:29:02 10° WSW 12:32:14 57° NW 12:35:27 10° NE daylight
26 Apr - 14:08:16 10° NW 14:09:12 11° NNW 14:10:04 10° N daylight
26 Apr - 17:24:06 10° N 17:24:36 10° NNE 17:25:08 10° NNE daylight
26 Apr - 18:58:25 10° NW 19:01:36 50° NE 19:04:46 10° ESE daylight
26 Apr - 20:36:05 10° W 20:37:40 13° SW 20:39:08 10° SSW visible
27 Apr - 11:34:55 10° SW 11:38:07 63° SE 11:41:20 10° NE daylight
27 Apr - 13:12:36 10° WNW 13:14:45 16° NNW 13:16:53 10° NNE daylight
27 Apr - 18:04:31 10° NNW 18:07:20 26° NNE 18:10:10 10° E daylight
27 Apr - 19:40:51 10° WNW 19:43:40 27° SW 19:46:27 10° SSE daylight
28 Apr - 10:41:15 10° SSW 10:44:02 27° SE 10:46:52 10° ENE daylight
28 Apr - 12:17:33 10° W 12:20:21 26° NNW 12:23:10 10° NNE daylight
28 Apr - 17:10:49 10° NNW 17:12:56 16° NNE 17:15:06 10° ENE daylight
28 Apr - 18:46:21 10° NW 18:49:34 63° SW 18:52:47 10° SE daylight
29 Apr - 09:48:31 10° SSE 09:49:57 13° SE 09:51:33 10° E daylight
29 Apr - 11:22:52 10° WSW 11:26:01 50° NW 11:29:12 10° NE daylight
29 Apr - 13:02:31 10° NNW 13:03:02 10° NNW 13:03:28 10° NNW daylight
29 Apr - 16:17:32 10° N 16:18:23 11° NNE 16:19:19 10° NE daylight
29 Apr - 17:52:08 10° NW 17:55:21 56° NE 17:58:33 10° ESE daylight
29 Apr - 19:30:12 10° WSW 19:31:22 11° SW 19:32:24 10° SSW daylight
30 Apr - 10:28:32 10° SW 10:31:45 71° SE 10:35:00 10° NE daylight
30 Apr - 12:06:24 10° WNW 12:08:26 15° NNW 12:10:25 10° NNE daylight
30 Apr - 16:58:06 10° NNW 17:00:58 28° NNE 17:03:51 10° E daylight
30 Apr - 18:34:32 10° WNW 18:37:15 24° SW 18:39:55 10° S daylight
01 May - 09:34:40 10° SSW 09:37:32 30° SE 09:40:26 10° ENE daylight
01 May - 11:11:09 10° W 11:13:53 24° NNW 11:16:37 10° NNE daylight
01 May - 16:04:13 10° NNW 16:06:27 17° NNE 16:08:43 10° ENE daylight
01 May - 17:39:50 10° WNW 17:43:02 55° SW 17:46:12 10° SE daylight
02 May - 08:41:35 10° SSE 08:43:20 14° SE 08:45:10 10° E daylight
02 May - 10:16:17 10° WSW 10:19:24 45° NW 10:22:33 10° NE daylight
02 May - 15:10:42 10° N 15:11:47 11° NNE 15:12:56 10° NE daylight
02 May - 16:45:27 10° NW 16:48:41 63° NE 16:51:54 10° ESE daylight
02 May - 18:24:13 10° WSW 18:24:41 10° SW 18:24:59 10° SW daylight
03 May - 09:21:46 10° SW 09:25:00 80° SE 09:28:14 10° NE daylight
03 May - 10:59:49 10° WNW 11:01:42 14° NNW 11:03:33 10° N daylight
03 May - 15:51:16 10° NNW 15:54:11 30° NE 15:57:08 10° E daylight
03 May - 17:27:49 10° WNW 17:30:25 22° SW 17:32:59 10° S daylight
04 May - 08:27:42 10° SSW 08:30:38 33° SE 08:33:36 10° ENE daylight
04 May - 10:04:21 10° W 10:07:01 23° NNW 10:09:40 10° NNE daylight
04 May - 14:57:14 10° NNW 14:59:33 18° NNE 15:01:54 10° ENE daylight
04 May - 16:32:56 10° WNW 16:36:05 50° SW 16:39:13 10° SSE daylight
05 May - 07:34:21 10° SSE 07:36:17 15° SE 07:38:19 10° E daylight
05 May - 09:09:18 10° WSW 09:12:24 42° NW 09:15:29 10° NE daylight
05 May - 14:03:30 10° N 14:04:46 12° NNE 14:06:05 10° NE daylight
05 May - 15:38:23 10° NW 15:41:37 69° NE 15:44:51 10° SE daylight
